Regional Weather Roundup
Issued by NWS Goodland, KS

Home | Current Version | Previous Version | Graphics & Text | Print | Product List | Glossary On
Versions: 1 2 3 4 5 6 7 8 9 10 11 12 13 14 15 16 17 18 19 20 21 22 23 24 25 26 27 28 29 30 31 32 33 34 35 36 37 38 39 40 41 42 43 44 45 46 47 48 49 50
000
ASUS43 KGLD 290759
RWRGLD

GOODLAND FORECAST AREA HOURLY WEATHER ROUNDUP
NATIONAL WEATHER SERVICE GOODLAND KS
200 AM MDT WED JUL 29 2015

...OFFICIAL OBSERVATIONS...

CITY           SKY/WX    TMP DP  RH WIND       PRES   REMARKS
GOODLAND KS    MOCLDY    61  50  67 CALM      30.21R
HILL CITY KS   MOCLDY    63  58  83 NE7       30.14R
IMPERIAL NEB   CLEAR     59  49  69 NW3       30.21R
MCCOOK NEB     PTCLDY    60  54  80 CALM      30.17R
AKRON CO       PTCLDY    64  45  49 S9        30.26R
BURLINGTON CO  MOCLDY    64  54  69 CALM      30.25R
LIMON CO       CLEAR     57  48  72 SW3       30.31R
$$

...UNOFFICIAL OBSERVATIONS...

CITY           SKY/WX    TMP DP  RH WIND       PRES   REMARKS
COLBY KS       CLEAR     64  55  72 NE6       30.20R
NORTON KS      CLEAR     57  52  82 CALM      30.15R
SHARON SPRINGS   N/A     62  57  84 CALM        N/A
KIT CARSON CO    N/A     61  49  63 MISG        N/A
$$


USA.gov is the U.S. government's official web portal to all federal, state and local government web resources and services.